Weather History for La Crosse, WI

Change the Weather History Date:

Monday, March 11, 2013

  Actual Average Record
Temperature  
Mean Temperature 30 °F 32 °F  
Max Temperature 32 °F 41 °F 67 °F (2012)
Min Temperature 27 °F 23 °F -11 °F (1948)
Degree Days  
Heating Degree Days 35 33  
Month to date heating degree days 443 385  
Since 1 July heating degree days 5772 5894  
Cooling Degree Days 0 0  
Month to date cooling degree days 0 0  
Year to date cooling degree days 0 0  
Moisture  
Dew Point 27 °F    
Average Humidity 85    
Maximum Humidity 92    
Minimum Humidity 78    
Precipitation  
Precipitation 0.04 in 0.06 in 0.89 in (1962)
Month to date precipitation 1.25 0.62  
Year to date precipitation 3.65 2.79  
Snow  
Snow 0.70 in 0.20 in 7.40 in (1962)
Month to date snowfall 10.3 3.3  
Since 1 July snowfall 50.3 37.8  
Snow Depth 5.00 in    
Sea Level Pressure  
Sea Level Pressure 29.71 in    
Wind  
Wind Speed 12 mph (NNW)    
Max Wind Speed 16 mph    
Max Gust Speed 21 mph    
Visibility 7 miles    
Events Rain , Snow    
T = Trace of Precipitation, MM = Missing Value Source: NWS Daily Summary

Daily Weather History Graph

Daily Weather History Graph

Search for Another Location

Airport:

Trip Planner

Search our weather history database for the weather conditions in past years. The results will help you decide how hot, cold, wet, or windy it might be!

Date:

Astronomy

Mar. 11, 2013 Rise Set
Actual Time 7:23 AM CDT 7:06 PM CDT
Civil Twilight 6:55 AM CDT 7:35 PM CDT
Nautical Twilight 6:21 AM CDT 8:08 PM CDT
Astronomical Twilight 5:48 AM CDT 8:42 PM CDT
Moon 6:56 AM CDT (3/11) 7:21 PM CDT (3/11)
Length of Visible Light 12h 40m
Length of Day
11h 42m
Waning Crescent, 0% of the Moon is Illuminated
Mar 11
Waning Crescent
Mar 11
New
Mar 19
First Quarter
Mar 27
Full
Apr 2
Last Quarter

Hourly Weather History & Observations

Time (CDT) Temp. Windchill Dew Point Humidity Pressure Visibility Wind Dir Wind Speed Gust Speed Precip Events Conditions
12:25 AM 32.0 °F 22.1 °F 30.2 °F 93% 29.72 in 2.0 mi North 13.8 mph - 0.01 in Snow Light Snow
12:53 AM 32.0 °F 22.5 °F 30.0 °F 92% 29.74 in 1.8 mi North 12.7 mph - 0.02 in Snow Light Snow
1:23 AM 32.0 °F 23.0 °F 30.2 °F 93% 29.71 in 1.5 mi North 11.5 mph - 0.01 in Snow Light Snow
1:42 AM 32.0 °F 22.5 °F 30.2 °F 93% 29.70 in 2.0 mi North 12.7 mph - 0.02 in Snow Light Snow
1:53 AM 32.0 °F 22.5 °F 30.0 °F 92% 29.73 in 2.5 mi North 12.7 mph - 0.02 in Snow Light Snow
2:00 AM 32.0 °F 23.0 °F 28.4 °F 87% 29.70 in 3.0 mi North 11.5 mph - 0.00 in Snow Light Snow
2:21 AM 30.2 °F 20.2 °F 28.4 °F 93% 29.70 in 3.0 mi North 12.7 mph - 0.00 in Snow Light Snow
2:23 AM 30.2 °F 20.2 °F 28.4 °F 93% 29.70 in 2.5 mi North 12.7 mph - 0.00 in Snow Light Snow
2:36 AM 30.2 °F 20.8 °F 28.4 °F 93% 29.71 in 3.0 mi North 11.5 mph - 0.00 in Snow Light Snow
2:53 AM 30.9 °F 21.7 °F 28.0 °F 89% 29.73 in 3.0 mi North 11.5 mph - 0.00 in Snow Light Snow
3:53 AM 30.0 °F 21.1 °F 28.0 °F 92% 29.71 in 5.0 mi North 10.4 mph - 0.00 in   Overcast
5:53 AM 30.0 °F 20.0 °F 27.0 °F 88% 29.70 in 10.0 mi NNW 12.7 mph - N/A   Overcast
6:53 AM 30.0 °F 20.0 °F 27.0 °F 88% 29.70 in 10.0 mi NNW 12.7 mph - N/A   Overcast
7:53 AM 30.0 °F 21.7 °F 27.0 °F 88% 29.72 in 10.0 mi NNW 9.2 mph - N/A   Overcast
8:53 AM 30.0 °F 20.5 °F 26.1 °F 85% 29.72 in 10.0 mi NNW 11.5 mph - N/A   Overcast
9:53 AM 30.0 °F 21.1 °F 27.0 °F 88% 29.70 in 10.0 mi NNW 10.4 mph - N/A   Overcast
10:53 AM 30.0 °F 19.1 °F 27.0 °F 88% 29.69 in 10.0 mi NNW 15.0 mph - N/A   Overcast
11:37 AM 30.2 °F 20.2 °F 28.4 °F 93% 29.66 in 9.0 mi NW 12.7 mph - N/A   Overcast
11:53 AM 30.0 °F 20.0 °F 28.0 °F 92% 29.69 in 5.0 mi NW 12.7 mph - N/A   Overcast
12:07 PM 30.2 °F 21.3 °F 28.4 °F 93% 29.66 in 4.0 mi NW 10.4 mph - 0.00 in Rain Light Freezing Rain
12:17 PM 30.2 °F 21.3 °F 28.4 °F 93% 29.66 in 5.0 mi NW 10.4 mph - 0.00 in Rain Light Freezing Rain
12:42 PM 30.2 °F 20.8 °F 28.4 °F 93% 29.65 in 10.0 mi NW 11.5 mph - 0.00 in   Overcast
12:53 PM 30.9 °F 22.2 °F 28.0 °F 89% 29.69 in 10.0 mi NW 10.4 mph - 0.00 in   Overcast
1:12 PM 30.2 °F 20.2 °F 28.4 °F 93% 29.65 in 10.0 mi NW 12.7 mph - N/A   Overcast
1:53 PM 30.9 °F 21.2 °F 28.0 °F 89% 29.68 in 10.0 mi NW 12.7 mph - N/A   Overcast
2:09 PM 30.2 °F 19.8 °F 28.4 °F 93% 29.65 in 10.0 mi NW 13.8 mph - 0.00 in   Overcast
2:27 PM 30.2 °F 20.8 °F 28.4 °F 93% 29.65 in 2.0 mi NW 11.5 mph - 0.00 in Snow Light Snow
2:36 PM 30.2 °F 20.8 °F 28.4 °F 93% 29.64 in 1.5 mi NW 11.5 mph - 0.01 in Snow Light Snow
2:53 PM 30.9 °F 22.2 °F 28.9 °F 92% 29.68 in 1.5 mi NW 10.4 mph - 0.01 in Snow Light Snow
3:07 PM 32.0 °F 23.6 °F 28.4 °F 87% 29.65 in 2.0 mi NW 10.4 mph - 0.00 in Snow Light Snow
3:21 PM 32.0 °F 22.1 °F 28.4 °F 87% 29.65 in 2.0 mi NW 13.8 mph - 0.00 in Snow Light Snow
3:32 PM 32.0 °F 21.6 °F 26.6 °F 80% 29.66 in 7.0 mi NW 15.0 mph - 0.00 in Snow Light Snow
3:53 PM 32.0 °F 21.6 °F 27.0 °F 82% 29.70 in 9.0 mi NW 15.0 mph - 0.01 in   Overcast
4:53 PM 30.9 °F 20.7 °F 26.1 °F 82% 29.71 in 10.0 mi NW 13.8 mph - 0.00 in   Overcast
5:53 PM 30.0 °F 20.0 °F 25.0 °F 82% 29.73 in 10.0 mi NW 12.7 mph - N/A   Overcast
6:53 PM 30.0 °F 20.0 °F 25.0 °F 82% 29.75 in 10.0 mi NW 12.7 mph - N/A   Overcast
7:53 PM 30.0 °F 21.1 °F 25.0 °F 82% 29.78 in 10.0 mi NW 10.4 mph - N/A   Overcast
8:53 PM 30.0 °F 20.0 °F 24.1 °F 79% 29.80 in 10.0 mi NW 12.7 mph - N/A   Overcast
9:53 PM 28.9 °F 19.8 °F 24.1 °F 82% 29.82 in 10.0 mi WNW 10.4 mph - N/A   Overcast
10:27 PM 28.4 °F 19.1 °F 24.8 °F 86% 29.80 in 10.0 mi WNW 10.4 mph - N/A   Overcast
10:53 PM 28.9 °F 19.8 °F 23.0 °F 78% 29.84 in 10.0 mi WNW 10.4 mph - N/A   Overcast
11:53 PM 28.9 °F 19.8 °F 23.0 °F 78% 29.85 in 10.0 mi West 10.4 mph - N/A   Overcast